{"data":{"norad_id":48924,"intl_designator":"2021-059AX","name":"FARADAY_PHOENIX","alt_names":[],"object_type":"PAYLOAD","status":"ACTIVE","operator":null,"country":"UK","launch_date":"2021-06-30","launch_site_code":"AFETR","launch_vehicle":null,"mission":null,"orbit_class":"UNKNOWN","rcs_meters":null,"size_class":null,"mass_kg":null,"dimensions":null,"purposes":[],"wikipedia_slug":null,"has_3d_model":false,"image_url":null,"decayed_at":null,"tle_current":{"epoch":"2026-05-25T03:51:39.034080Z","epoch_age_seconds":55018,"freshness":"FRESH","line1":"1 48924U 21059AX  26145.16086845  .00108282  00000+0  80147-3 0  9993","line2":"2 48924  97.6854 340.7332 0003698  70.7208 289.4454 15.72595795274037","mean_motion":15.72595795,"eccentricity":0.0003698,"inclination_deg":97.6854,"raan_deg":340.7332,"arg_perigee_deg":70.7208,"mean_anomaly_deg":289.4454,"bstar":0.00080147,"rev_number":27403,"period_min":91.568348623239,"perigee_km":348.99272774557,"apogee_km":353.96995347028,"semimajor_km":6729.6183406079,"source":"CELESTRAK","updated_at":"2026-05-25T13:37:56.977271Z"}}}